{"data":{"norad_id":63698,"intl_designator":"2025-087B","name":"STARLINK-33922","alt_names":[],"object_type":"PAYLOAD","status":"ACTIVE","operator":null,"country":"US","launch_date":"2025-04-28","launch_site_code":"AFWTR","launch_vehicle":null,"mission":null,"orbit_class":"UNKNOWN","rcs_meters":null,"size_class":null,"mass_kg":null,"dimensions":null,"purposes":["comms"],"wikipedia_slug":null,"has_3d_model":false,"image_url":null,"decayed_at":null,"tle_current":{"epoch":"2026-05-24T21:58:27.700896Z","epoch_age_seconds":76292,"freshness":"FRESH","line1":"1 63698U 25087B   26144.91559839  .00013830  00000+0  47808-3 0  9994","line2":"2 63698  53.1565 225.2493 0000899  66.1597 293.9497 15.30208531 60867","mean_motion":15.30208531,"eccentricity":8.99e-5,"inclination_deg":53.1565,"raan_deg":225.2493,"arg_perigee_deg":66.1597,"mean_anomaly_deg":293.9497,"bstar":0.00047808,"rev_number":6086,"period_min":94.104821063764,"perigee_km":474.57348344827,"apogee_km":475.8057115705,"semimajor_km":6853.3265975094,"source":"CELESTRAK","updated_at":"2026-05-25T13:38:20.095749Z"}}}